Location: Sungai Dangang
(2.7500°N, 113.8333°E)
Time: 05:20:34
(UTC+00:00)

USA 234 - Pass Details

Date: 16 May 2021
Orbit: 1102 x 1105 km, 123.0° (Epoch: 18 April)

Event Time Altitude Azimuth Distance (km) Brightness Sun altitude
Rises 19:58:30 0° 40° (NE) 3,906 7.0 -32.2°
Reaches altitude 10° 20:00:59 10° 43° (NE) 2,949 6.3 -31.7°
Maximum altitude 20:07:28 72° 126° (SE) 1,150 3.3 -30.2°
Enters shadow 20:08:26 63° 178° (S) 1,220 3.3 -30.0°
